Vertical_Velocity
1 -0 -0 3 -11 -6 -1 -4 0 -1 0 0 3 -2 -6 1 -5 -11 -0 3 -2 0 0 1 -1 1 -1 -1 0 0 -1 -1 -2 -0 0 -2 -1 0 -1 0 -1 -1 -0 -1 0 -0 -1 -1 -1
3 0 3 -2 -9 -2 -4 -2 -0 -1 1 2 4 -0 -1 -0 0 -1 -1 -1 0 -0 -2 0 -0 0 1 -0 -1 -0 -0 0 -0 1 1 -1 -0 -1 -1 -2 -1 -1 -1 -0 0 0 -0 -1 -0
6 4 0 -4 -1 -3 -3 -0 -1 -3 -0 1 0 1 1 0 -0 3 -1 -1 -1 2 -1 2 1 -0 -1 -0 -2 -1 -1 -0 2 1 0 1 -0 -0 -0 -1 -2 -0 -1 -0 -1 -1 -1 -1 -1
6 5 -3 -6 -1 -3 -2 0 0 -3 1 3 -1 -1 2 -1 2 2 -1 -1 -2 2 0 2 1 1 -1 0 0 -1 -1 -0 1 2 2 0 -2 -1 -0 -1 -1 0 0 -1 0 -0 -1 -1 -0
1 4 -2 -1 -1 -1 -0 1 2 -0 -1 1 0 -2 1 -0 1 1 0 0 -1 -0 1 2 2 2 0 -1 0 1 -1 -0 -0 1 2 -1 -1 -0 -2 -1 -1 1 0 1 1 0 0 -0 -1
3 0 -1 -0 -1 -1 -1 1 1 0 1 2 -2 0 1 2 2 -1 1 2 2 -2 -1 -1 3 2 1 -1 -0 0 0 0 -1 -0 -1 -2 2 -0 -1 -2 -0 -1 -1 -0 -0 -1 -0 -0 0
1 -2 -1 -0 -0 -1 0 1 -1 1 1 0 4 -1 0 1 1 3 -1 -0 1 3 -0 1 -3 2 1 1 1 0 -0 1 0 1 -1 0 -2 -3 0 1 -0 0 0 -0 -0 -3 -1 0 -1
7 -4 1 -1 -1 -1 1 -1 1 0 -1 4 -2 -2 -2 -3 -1 -0 2 -2 1 5 2 -0 -2 1 1 2 0 -0 1 0 0 -1 1 0 -0 1 -0 -1 1 3 0 1 0 -1 1 0 -0
-1 0 -0 -2 -1 -1 1 -1 1 2 -0 2 3 5 3 -1 -2 0 0 2 -2 3 1 2 1 0 2 0 0 1 -0 0 -1 1 0 0 1 0 -1 -1 -1 -0 1 0 0 -0 1 -0 -1
0 3 -5 -2 -0 1 1 -2 0 -4 -4 1 -1 -1 9 11 -1 -2 -3 -1 -2 0 -0 2 2 1 1 1 1 -1 -2 -0 1 2 -0 2 1 -1 -1 -0 -0 0 1 -1 1 -1 -0 0 -0
-1 -6 -4 0 4 -6 1 -1 -1 0 -2 3 2 -6 -0 17 2 2 0 1 -4 -1 1 1 1 1 1 -1 -0 -1 1 1 1 -1 1 -1 0 -0 1 1 2 1 0 1 -1 -1 -1 -1 -0
-2 -2 -1 -3 3 0 -1 1 -2 1 -7 -1 2 4 -3 -3 6 -0 -1 -0 -2 -1 2 2 -0 0 1 1 0 0 -1 0 0 1 -1 -1 -1 -0 1 1 1 0 0 -0 -0 1 1 1 1
1 -1 2 4 -0 -2 -3 -2 -3 -13 10 1 -1 3 8 -1 6 8 4 3 1 -2 -0 -0 0 0 1 -0 -0 -1 -0 -0 1 -1 -0 -1 0 2 0 1 0 0 0 0 -0 1 0 1 1
-3 -1 1 3 2 -1 -1 1 -0 -18 -1 -5 -2 -2 1 4 2 3 3 -0 -1 2 0 0 -1 0 0 1 0 -0 1 0 0 -1 1 -0 0 0 0 1 1 1 -0 0 -1 -0 -0 -0 -0
1 1 3 4 1 -0 -4 -3 -1 -6 6 -6 -7 -1 2 0 0 2 6 3 -0 -1 0 2 2 2 -0 1 2 -0 2 -1 -1 -1 0 -0 -0 -0 0 1 1 1 0 1 -0 -0 -1 -1 -2
-1 -0 2 2 1 4 -9 -9 -5 -11 6 -5 -6 -3 -0 2 5 2 1 3 3 1 1 -0 1 1 1 1 -0 1 1 0 -0 -1 -0 -1 1 -0 1 -1 -1 2 0 -0 -0 1 -0 -1 -0
2 -2 0 4 -0 -1 -6 -2 -9 -2 -5 -3 -5 -3 2 0 -1 1 1 -0 0 1 1 2 -0 -1 -1 2 -0 -1 1 -1 0 1 0 0 1 1 -1 -2 -0 1 0 0 1 0 1 -1 0
-0 -0 1 -2 -2 2 3 -1 1 -1 -3 -1 -5 -3 -2 -4 -2 2 4 2 -0 -1 -1 -3 -1 -1 -0 0 0 1 2 -1 -0 -0 -1 1 0 2 1 -2 -0 2 -0 1 2 1 1 -1 -0
-2 -1 -1 1 0 -2 -2 -0 -2 -0 2 -3 -3 -4 -5 -4 2 0 -0 -1 -0 -1 1 -0 0 -1 -2 -2 -2 -4 -6 -2 -3 -1 1 -1 -0 2 1 -1 -0 1 0 1 -1 -1 0 -2 1
-0 -1 1 1 1 -3 1 -3 -1 -0 -3 -10 -4 0 -4 -0 -2 1 0 1 0 1 -1 0 1 2 1 -0 -1 -1 -0 -1 0 2 2 3 0 1 -2 -1 -1 1 -1 0 -0 1 -3 0 -2
-0 -3 0 -5 1 -1 -1 -0 4 -1 2 3 -8 -3 1 -4 -0 -3 -0 -0 -0 1 2 1 1 2 2 3 4 4 3 2 2 4 4 3 2 1 1 3 2 3 2 -2 2 0 2 1 -1
-1 -1 -1 -0 -2 -3 -2 -6 -0 -2 -1 1 -3 1 -6 0 -2 -0 1 3 2 1 0 -1 0 0 1 0 -0 -1 -1 -1 -0 -0 1 3 1 2 1 1 2 1 3 0 3 5 3 3 2
-1 -1 -2 -1 -1 -2 -1 1 -8 0 1 -5 -4 -1 -4 -2 0 -4 -3 3 0 1 2 2 1 1 1 1 1 1 1 1 1 -0 -1 -1 1 0 2 0 1 -0 1 1 1 3 3 1 1
-2 -3 -2 -1 -2 -2 -4 -4 -7 -2 -6 -1 -2 -4 -3 -1 -1 3 4 1 1 0 0 0 -0 -1 -1 0 -0 -1 -1 -2 -2 -1 -0 -0 -0 1 -1 -1 -2 -1 -0 1 -0 3 0 2 1
-2 -4 -3 -6 -5 -6 -1 3 -14 -1 -2 -1 -2 -2 -2 3 1 1 -2 -1 1 1 0 -0 -1 -1 -2 -2 -2 -2 -2 -1 -1 -1 -1 -1 -1 0 1 -0 1 1 1 -2 -0 2 3 2 2
-1 -5 -6 -4 -2 -3 -1 -4 -16 -3 -1 -1 -2 2 -2 -3 3 2 1 1 2 1 0 -1 -1 -1 -1 -1 -0 -1 -1 -0 -1 -2 -1 -2 -2 -2 -1 -1 -1 -2 -1 1 1 -1 5 1 -1
-5 -1 -5 -5 -0 -4 -4 -10 -8 -1 -2 -0 -1 0 0 -0 -3 3 3 2 2 1 0 0 -0 -1 -1 -0 0 0 0 -0 -1 -1 -1 -1 -0 0 -1 -1 1 1 2 1 1 1 1 -1 -0
-6 -6 -7 -4 -4 -1 -3 -1 -8 -4 -2 -2 -2 -2 0 2 5 3 1 -1 -2 -1 -1 -2 -0 -2 -1 -0 -1 -0 1 1 0 0 1 0 -1 -1 -0 1 1 1 1 1 -1 0 -0 -0 -1
-1 0 -2 -8 -4 -4 -1 -9 -5 -2 -0 -0 -2 -0 -3 1 -0 0 2 1 0 -1 -0 -0 -0 -0 -1 -1 -1 -2 1 0 0 -0 -1 -1 -1 -1 1 0 1 1 0 1 -0 0 1 1 1
-0 -1 -2 -6 -4 -1 -3 -17 -0 -0 -0 2 -2 0 1 0 0 -0 -1 1 1 1 1 0 -1 -1 -0 -1 -1 -2 -2 -2 -1 -0 1 0 1 -1 -0 -0 1 0 1 1 2 2 2 1 1
Height
1520 1520 1521 1523 1534 1539 1543 1534 1525 1523 1522 1517 1516 1517 1519 1520 1522 1536 1522 1526 1530 1533 1536 1539 1543 1546 1549 1551 1552 1554 1555 1556 1557 1558 1558 1559 1560 1561 1562 1563 1564 1564 1564 1563 1564 1564 1565 1567 1568
1519 1519 1521 1522 1538 1548 1541 1529 1526 1523 1520 1517 1517 1517 1518 1521 1520 1521 1523 1526 1531 1534 1537 1540 1543 1547 1549 1551 1554 1555 1556 1557 1558 1559 1559 1560 1561 1563 1564 1565 1566 1566 1565 1565 1565 1566 1567 1568 1569
1517 1518 1520 1525 1539 1543 1537 1526 1525 1520 1519 1518 1518 1517 1517 1521 1521 1523 1524 1525 1531 1535 1538 1541 1544 1547 1550 1552 1554 1556 1557 1558 1559 1559 1560 1561 1563 1564 1566 1566 1567 1567 1567 1568 1568 1568 1569 1569 1570
1517 1518 1521 1529 1535 1528 1526 1525 1523 1520 1517 1518 1518 1518 1519 1520 1522 1525 1526 1527 1531 1536 1539 1542 1545 1548 1550 1553 1555 1557 1558 1559 1560 1560 1561 1563 1564 1566 1567 1567 1568 1569 1569 1569 1569 1570 1570 1571 1572
1516 1515 1525 1533 1529 1525 1523 1523 1522 1522 1519 1517 1518 1519 1519 1521 1522 1526 1528 1529 1532 1537 1541 1543 1546 1548 1551 1553 1556 1557 1559 1560 1561 1562 1563 1563 1566 1567 1567 1568 1569 1569 1570 1570 1571 1571 1572 1572 1573
1517 1513 1525 1533 1528 1523 1523 1522 1523 1523 1519 1518 1520 1520 1521 1521 1523 1526 1529 1532 1534 1536 1541 1544 1547 1549 1551 1553 1555 1557 1559 1561 1562 1563 1564 1565 1566 1567 1568 1569 1570 1571 1571 1572 1572 1572 1573 1574 1574
1515 1514 1523 1523 1526 1523 1522 1521 1524 1524 1521 1520 1522 1523 1522 1522 1524 1528 1530 1534 1536 1538 1541 1544 1548 1549 1552 1554 1556 1558 1559 1561 1563 1564 1565 1567 1568 1568 1568 1570 1571 1572 1573 1574 1574 1574 1575 1575 1575
1515 1515 1521 1520 1521 1523 1522 1523 1525 1523 1523 1520 1522 1524 1522 1521 1525 1529 1530 1534 1538 1539 1542 1545 1547 1549 1552 1554 1556 1558 1560 1561 1562 1564 1565 1566 1568 1569 1570 1571 1571 1572 1573 1574 1575 1575 1576 1576 1577
1516 1519 1519 1519 1517 1520 1521 1524 1525 1524 1523 1520 1522 1523 1521 1521 1524 1528 1531 1534 1538 1540 1542 1545 1547 1549 1551 1554 1556 1558 1559 1561 1563 1564 1565 1567 1567 1568 1569 1571 1572 1572 1573 1574 1575 1576 1576 1576 1576
1511 1513 1515 1513 1514 1517 1521 1525 1526 1526 1523 1522 1522 1524 1525 1522 1523 1527 1530 1532 1536 1539 1541 1544 1546 1548 1551 1554 1555 1557 1558 1560 1563 1564 1565 1567 1567 1568 1569 1570 1571 1573 1574 1574 1575 1576 1577 1577 1577
1507 1504 1510 1511 1514 1517 1521 1525 1528 1528 1526 1526 1526 1526 1529 1526 1526 1528 1530 1533 1535 1539 1541 1542 1545 1547 1549 1552 1555 1557 1558 1560 1562 1564 1565 1566 1567 1568 1569 1570 1571 1572 1573 1574 1574 1575 1576 1576 1576
1506 1508 1510 1514 1515 1516 1520 1525 1526 1528 1526 1526 1525 1526 1526 1526 1526 1528 1530 1533 1535 1538 1541 1542 1544 1546 1548 1551 1554 1556 1558 1560 1561 1563 1564 1565 1566 1568 1569 1570 1571 1572 1572 1573 1574 1574 1575 1575 1575
1503 1503 1505 1514 1516 1520 1525 1528 1528 1524 1524 1526 1523 1524 1524 1525 1528 1530 1531 1534 1535 1538 1540 1542 1543 1546 1547 1550 1552 1554 1556 1559 1560 1562 1563 1564 1565 1566 1567 1568 1569 1571 1571 1572 1572 1572 1572 1573 1573
1497 1501 1506 1513 1515 1520 1522 1524 1528 1519 1522 1524 1522 1524 1524 1525 1528 1530 1529 1532 1534 1537 1539 1541 1543 1546 1547 1549 1551 1554 1555 1557 1558 1560 1562 1563 1564 1565 1566 1567 1568 1569 1570 1571 1571 1571 1570 1571 1571
1500 1504 1509 1510 1512 1520 1523 1524 1521 1517 1523 1523 1523 1525 1524 1524 1525 1528 1530 1530 1533 1536 1539 1540 1543 1545 1547 1549 1551 1553 1555 1556 1557 1559 1560 1561 1563 1564 1564 1565 1566 1567 1568 1568 1568 1569 1569 1568 1569
1502 1506 1507 1508 1513 1521 1522 1519 1518 1520 1523 1522 1523 1523 1523 1523 1523 1527 1529 1530 1531 1534 1536 1539 1541 1543 1546 1548 1550 1552 1553 1554 1556 1557 1558 1559 1560 1561 1562 1562 1563 1564 1565 1565 1565 1566 1566 1565 1565
1503 1510 1508 1512 1512 1514 1517 1521 1512 1517 1522 1521 1523 1523 1522 1522 1522 1525 1526 1528 1529 1532 1534 1536 1538 1541 1543 1546 1548 1550 1551 1552 1554 1555 1556 1557 1558 1558 1559 1559 1560 1561 1561 1562 1561 1561 1561 1561 1561
1500 1508 1503 1505 1507 1510 1514 1514 1513 1517 1519 1520 1521 1520 1519 1520 1521 1523 1524 1526 1528 1530 1532 1534 1536 1538 1540 1542 1544 1546 1547 1549 1551 1551 1552 1553 1554 1554 1555 1555 1556 1557 1557 1557 1557 1557 1557 1556 1555
1498 1501 1507 1503 1503 1510 1514 1515 1515 1517 1521 1520 1516 1515 1516 1517 1519 1521 1522 1524 1526 1529 1530 1532 1533 1535 1537 1539 1540 1542 1543 1545 1546 1548 1549 1549 1550 1550 1550 1551 1551 1552 1552 1552 1553 1552 1551 1550 1550
1496 1504 1506 1502 1501 1509 1513 1514 1515 1514 1511 1513 1512 1511 1512 1513 1515 1518 1519 1520 1523 1525 1527 1529 1530 1532 1534 1536 1537 1538 1540 1541 1542 1543 1544 1544 1544 1545 1545 1546 1546 1546 1546 1546 1546 1546 1545 1545 1545
1501 1503 1506 1507 1506 1509 1511 1516 1513 1509 1508 1508 1509 1505 1506 1510 1511 1514 1516 1518 1520 1521 1523 1525 1527 1529 1530 1532 1533 1534 1535 1536 1538 1538 1539 1538 1538 1539 1539 1540 1540 1540 1539 1539 1541 1540 1540 1539 1539
1502 1501 1502 1507 1510 1522 1511 1525 1509 1501 1502 1505 1503 1501 1500 1506 1508 1511 1513 1515 1517 1518 1520 1521 1524 1525 1527 1528 1529 1530 1531 1532 1532 1533 1534 1534 1533 1533 1533 1533 1533 1534 1534 1533 1534 1535 1534 1534 1534
1499 1500 1502 1507 1515 1514 1515 1523 1499 1496 1497 1487 1487 1492 1494 1499 1503 1507 1510 1513 1514 1516 1517 1519 1521 1522 1524 1524 1525 1526 1526 1526 1526 1526 1527 1528 1528 1527 1527 1527 1527 1527 1527 1527 1527 1529 1529 1529 1530
1498 1502 1508 1513 1520 1534 1519 1517 1498 1494 1485 1486 1486 1486 1488 1492 1497 1503 1507 1509 1510 1512 1514 1516 1517 1518 1520 1520 1521 1521 1522 1522 1522 1522 1522 1522 1522 1522 1521 1521 1521 1520 1520 1520 1521 1523 1522 1524 1524
1496 1505 1533 1536 1542 1534 1523 1517 1489 1485 1485 1485 1481 1479 1482 1485 1491 1496 1500 1503 1506 1509 1511 1513 1515 1516 1516 1517 1517 1518 1518 1518 1518 1518 1517 1517 1517 1517 1516 1516 1516 1515 1514 1515 1516 1517 1517 1518 1519
1499 1501 1523 1520 1532 1525 1521 1513 1492 1483 1482 1480 1477 1477 1479 1481 1485 1490 1496 1500 1503 1506 1509 1511 1513 1514 1514 1515 1514 1514 1514 1513 1512 1512 1512 1512 1512 1511 1511 1510 1510 1510 1511 1511 1512 1512 1512 1513 1514
1500 1512 1510 1531 1541 1547 1518 1502 1485 1479 1476 1473 1473 1474 1477 1480 1483 1489 1493 1498 1501 1504 1507 1508 1509 1510 1511 1511 1511 1510 1509 1508 1508 1507 1507 1507 1506 1506 1506 1506 1506 1507 1507 1507 1508 1508 1509 1509 1510
1497 1503 1511 1530 1539 1527 1514 1514 1500 1481 1476 1475 1474 1475 1476 1479 1483 1486 1491 1495 1498 1502 1503 1505 1506 1507 1507 1507 1506 1506 1505 1504 1503 1503 1503 1502 1503 1503 1503 1502 1502 1503 1503 1503 1503 1503 1503 1503 1504
1502 1510 1511 1513 1524 1527 1519 1501 1485 1482 1478 1478 1473 1473 1475 1478 1481 1486 1490 1493 1496 1498 1500 1501 1502 1503 1502 1502 1501 1501 1500 1500 1499 1499 1498 1498 1498 1499 1499 1500 1500 1499 1500 1500 1500 1500 1500 1499 1500
1499 1501 1503 1518 1524 1532 1532 1505 1477 1478 1476 1474 1473 1472 1474 1478 1481 1484 1488 1491 1493 1495 1497 1497 1498 1498 1498 1496 1496 1494 1495 1495 1495 1495 1494 1493 1494 1495 1495 1496 1496 1495 1496 1496 1497 1497 1496 1496 1496